,,,PA_Meas_PMT16A,,PR_Meas_QMR101_102,,RH_Meas_QMH101,,SR_Meas_QMS101,,TA_Meas_QMH101,,GenWind,,GenWind,
date,time,status,PA,status,PR,status,RH,status,SR,status,TA,status,DirAvg,status,SpdAvg,
2010-03-24, 00:00:04,VALID,1008.15,VALID,0,VALID,93.2172,VALID,0,VALID,24.4364,VALID,12,VALID,0,
2010-03-24, 00:01:04,VALID,1008.15,VALID,0,VALID,93.2172,VALID,0,VALID,24.4559,VALID,12,VALID,0,
2010-03-24, 00:02:04,VALID,1008.11,VALID,0,VALID,93.2096,VALID,0,VALID,24.4559,VALID,12,VALID,0,
2010-03-24, 00:03:04,VALID,1008.11,VALID,0,VALID,93.1943,VALID,0,VALID,24.4735,VALID,12,VALID,0,
2010-03-24, 00:04:04,VALID,1008.09,VALID,0,VALID,93.1715,VALID,0,VALID,24.4949,VALID,12,VALID,0,
2010-03-24, 00:05:04,VALID,1008.07,VALID,0,VALID,93.1791,VALID,0,VALID,24.4735,VALID,12,VALID,0,
2010-03-24, 00:06:04,VALID,1008.05,VALID,0,VALID,93.1715,VALID,0,VALID,24.5144,VALID,12,VALID,0,
2010-03-24, 00:07:04,VALID,1008.02,VALID,0,VALID,93.1638,VALID,0,VALID,24.493,VALID,12,VALID,0,
2010-03-24, 00:08:04,VALID,1008.03,VALID,0,VALID,93.1867,VALID,0,VALID,24.493,VALID,12,VALID,0,
2010-03-24, 00:09:04,VALID,1008,VALID,0,VALID,93.202,VALID,0,VALID,24.4735,VALID,12,VALID,0,
2010-03-24, 00:10:04,VALID,1008.02,VALID,0,VALID,93.1943,VALID,0,VALID,24.4735,VALID,12,VALID,0,
2010-03-24, 00:11:04,VALID,1008,VALID,0,VALID,93.202,VALID,0,VALID,24.4735,VALID,12,VALID,0,
2010-03-24, 00:12:04,VALID,1007.99,VALID,0,VALID,93.1943,VALID,0,VALID,24.493,VALID,12,VALID,0,
2010-03-24, 00:13:04,VALID,1007.97,VALID,0,VALID,93.1715,VALID,0,VALID,24.493,VALID,12,VALID,0,
2010-03-24, 00:14:04,VALID,1007.97,VALID,0,VALID,93.1715,VALID,0,VALID,24.5144,VALID,12,VALID,0,
2010-03-24, 00:15:04,VALID,1007.94,VALID,0,VALID,93.1562,VALID,0,VALID,24.5106,VALID,12,VALID,0,
2010-03-24, 00:16:04,VALID,1007.94,VALID,0,VALID,93.1105,VALID,0.105969,VALID,24.5496,VALID,344,VALID,0.199609,
2010-03-24, 00:17:04,VALID,1007.92,VALID,0,VALID,93.1257,VALID,0,VALID,24.571,VALID,332,VALID,0.00078125,
2010-03-24, 00:18:04,VALID,1007.89,VALID,0,VALID,93.141,VALID,0,VALID,24.5691,VALID,332,VALID,0,
2010-03-24, 00:19:04,VALID,1007.89,VALID,0,VALID,93.1181,VALID,0.105969,VALID,24.5886,VALID,332,VALID,0,
2010-03-24, 00:20:04,VALID,1007.89,VALID,0,VALID,93.141,VALID,0.105969,VALID,24.6099,VALID,331,VALID,0,
2010-03-24, 00:21:04,VALID,1007.87,VALID,0,VALID,93.1486,VALID,0.105969,VALID,24.5905,VALID,331,VALID,0,
2010-03-24, 00:22:04,VALID,1007.84,VALID,0,VALID,93.1638,VALID,0,VALID,24.5691,VALID,332,VALID,0,
2010-03-24, 00:23:04,VALID,1007.83,VALID,0,VALID,93.1867,VALID,0.105969,VALID,24.5691,VALID,332,VALID,0,
2010-03-24, 00:24:04,VALID,1007.79,VALID,0,VALID,93.202,VALID,0.105969,VALID,24.5691,VALID,332,VALID,0,
2010-03-24, 00:25:04,VALID,1007.78,VALID,0,VALID,93.202,VALID,0,VALID,24.5691,VALID,332,VALID,0,
2010-03-24, 00:26:04,VALID,1007.76,VALID,0,VALID,93.1867,VALID,0.105969,VALID,24.5691,VALID,332,VALID,0,
2010-03-24, 00:27:04,VALID,1007.73,VALID,0,VALID,93.202,VALID,0.105969,VALID,24.5496,VALID,332,VALID,0,
2010-03-24, 00:28:04,VALID,1007.75,VALID,0,VALID,93.1867,VALID,0,VALID,24.5496,VALID,332,VALID,0,
2010-03-24, 00:29:04,VALID,1007.72,VALID,0,VALID,93.202,VALID,0,VALID,24.5515,VALID,332,VALID,0,
2010-03-24, 00:30:04,VALID,1007.7,VALID,0,VALID,93.202,VALID,0.105969,VALID,24.5301,VALID,327,VALID,0,
2010-03-24, 00:31:04,VALID,1007.68,VALID,0,VALID,93.202,VALID,0.105969,VALID,24.571,VALID,326,VALID,0,
2010-03-24, 00:32:04,VALID,1007.7,VALID,0,VALID,93.1943,VALID,0.105969,VALID,24.5496,VALID,326,VALID,0,
2010-03-24, 00:33:04,VALID,1007.68,VALID,0,VALID,93.1791,VALID,0.105969,VALID,24.5496,VALID,326,VALID,0,
2010-03-24, 00:34:04,VALID,1007.64,VALID,0,VALID,93.1867,VALID,0.105969,VALID,24.5496,VALID,326,VALID,0,
2010-03-24, 00:35:04,VALID,1007.65,VALID,0,VALID,93.1791,VALID,0,VALID,24.5496,VALID,326,VALID,0,
2010-03-24, 00:36:04,VALID,1007.63,VALID,0,VALID,93.1715,VALID,0.105969,VALID,24.571,VALID,326,VALID,0,
2010-03-24, 00:37:04,VALID,1007.65,VALID,0,VALID,93.1715,VALID,0.105969,VALID,24.5691,VALID,326,VALID,0,
2010-03-24, 00:38:04,VALID,1007.61,VALID,0,VALID,93.1715,VALID,0,VALID,24.571,VALID,326,VALID,0,
2010-03-24, 00:39:04,VALID,1007.6,VALID,0,VALID,93.1638,VALID,0,VALID,24.5905,VALID,326,VALID,0,
2010-03-24, 00:40:04,VALID,1007.6,VALID,0,VALID,93.1867,VALID,0.105969,VALID,24.5691,VALID,326,VALID,0,
2010-03-24, 00:41:04,VALID,1007.57,VALID,0,VALID,93.1562,VALID,0.105969,VALID,24.5905,VALID,326,VALID,0,
2010-03-24, 00:42:04,VALID,1007.54,VALID,0,VALID,93.1715,VALID,0,VALID,24.5905,VALID,326,VALID,0,
2010-03-24, 00:43:04,VALID,1007.52,VALID,0,VALID,93.1333,VALID,0.105969,VALID,24.5691,VALID,326,VALID,0,
2010-03-24, 00:44:04,VALID,1007.51,VALID,0,VALID,93.1638,VALID,0,VALID,24.6099,VALID,326,VALID,0,
2010-03-24, 00:45:04,VALID,1007.5,VALID,0,VALID,93.1715,VALID,0.105969,VALID,24.5905,VALID,326,VALID,0,
2010-03-24, 00:46:04,VALID,1007.5,VALID,0,VALID,93.1867,VALID,0.105969,VALID,24.5905,VALID,326,VALID,0,
2010-03-24, 00:47:04,VALID,1007.5,VALID,0,VALID,93.1867,VALID,0,VALID,24.5905,VALID,326,VALID,0,
2010-03-24, 00:48:04,VALID,1007.48,VALID,0,VALID,93.1562,VALID,0,VALID,24.5905,VALID,326,VALID,0,
2010-03-24, 00:49:04,VALID,1007.46,VALID,0,VALID,93.1638,VALID,0,VALID,24.5691,VALID,326,VALID,0,
2010-03-24, 00:50:04,VALID,1007.45,VALID,0,VALID,93.1791,VALID,0.105969,VALID,24.571,VALID,326,VALID,0,
2010-03-24, 00:51:04,VALID,1007.43,VALID,0,VALID,93.1486,VALID,0,VALID,24.5905,VALID,326,VALID,0,
2010-03-24, 00:52:04,VALID,1007.42,VALID,0,VALID,93.1562,VALID,0.105969,VALID,24.5905,VALID,326,VALID,0,
2010-03-24, 00:53:04,VALID,1007.42,VALID,0,VALID,93.1715,VALID,0,VALID,24.5905,VALID,326,VALID,0,
2010-03-24, 00:54:04,VALID,1007.44,VALID,0,VALID,93.1715,VALID,0,VALID,24.5496,VALID,326,VALID,0,
2010-03-24, 00:55:04,VALID,1007.41,VALID,0,VALID,93.1943,VALID,0.105969,VALID,24.5691,VALID,326,VALID,0,
2010-03-24, 00:56:04,VALID,1007.43,VALID,0,VALID,93.1943,VALID,0,VALID,24.5905,VALID,326,VALID,0,
2010-03-24, 00:57:04,VALID,1007.42,VALID,0,VALID,93.1943,VALID,0,VALID,24.5496,VALID,20,VALID,0,
2010-03-24, 00:58:04,VALID,1007.42,VALID,0,VALID,93.1943,VALID,0,VALID,24.5496,VALID,20,VALID,0,
2010-03-24, 00:59:04,VALID,1007.43,VALID,0,VALID,93.1943,VALID,0.105969,VALID,24.5496,VALID,20,VALID,0,
2010-03-24, 01:00:04,VALID,1007.38,VALID,0,VALID,93.1943,VALID,0,VALID,24.571,VALID,20,VALID,0,
2010-03-24, 01:01:04,VALID,1007.42,VALID,0,VALID,93.1638,VALID,0,VALID,24.571,VALID,20,VALID,0,
2010-03-24, 01:02:04,VALID,1007.42,VALID,0,VALID,93.1867,VALID,0,VALID,24.571,VALID,20,VALID,0,
2010-03-24, 01:03:04,VALID,1007.43,VALID,0,VALID,93.1867,VALID,0,VALID,24.5515,VALID,20,VALID,0,
2010-03-24, 01:04:04,VALID,1007.4,VALID,0,VALID,93.1791,VALID,0,VALID,24.5515,VALID,20,VALID,0,
2010-03-24, 01:05:04,VALID,1007.43,VALID,0,VALID,93.1715,VALID,0,VALID,24.571,VALID,20,VALID,0,
2010-03-24, 01:06:04,VALID,1007.4,VALID,0,VALID,93.1638,VALID,0,VALID,24.571,VALID,20,VALID,0,
2010-03-24, 01:07:04,VALID,1007.37,VALID,0,VALID,93.1638,VALID,0,VALID,24.571,VALID,20,VALID,0,
2010-03-24, 01:08:05,VALID,1007.36,VALID,0,VALID,93.1867,VALID,0,VALID,24.571,VALID,20,VALID,0,
2010-03-24, 01:09:05,VALID,1007.36,VALID,0,VALID,93.1867,VALID,0,VALID,24.571,VALID,20,VALID,0,
2010-03-24, 01:10:05,VALID,1007.31,VALID,0,VALID,93.1943,VALID,0,VALID,24.5496,VALID,20,VALID,0,
2010-03-24, 01:11:05,VALID,1007.29,VALID,0,VALID,93.1867,VALID,0,VALID,24.5515,VALID,20,VALID,0,
2010-03-24, 01:12:05,VALID,1007.28,VALID,0,VALID,93.202,VALID,0,VALID,24.5533,VALID,20,VALID,0,
2010-03-24, 01:13:05,VALID,1007.27,VALID,0,VALID,93.2248,VALID,0,VALID,24.5515,VALID,20,VALID,0,
2010-03-24, 01:14:05,VALID,1007.25,VALID,0,VALID,93.2172,VALID,0,VALID,24.5533,VALID,20,VALID,0,
2010-03-24, 01:15:05,VALID,1007.22,VALID,0,VALID,93.1715,VALID,0.105969,VALID,24.5496,VALID,20,VALID,0,
2010-03-24, 01:16:05,VALID,1007.19,VALID,0,VALID,93.1867,VALID,0.105969,VALID,24.5496,VALID,20,VALID,0,
2010-03-24, 01:17:05,VALID,1007.19,VALID,0,VALID,93.2172,VALID,0.105969,VALID,24.5496,VALID,20,VALID,0,
2010-03-24, 01:18:05,VALID,1007.16,VALID,0,VALID,93.2172,VALID,0.105969,VALID,24.5496,VALID,20,VALID,0,
2010-03-24, 01:19:05,VALID,1007.15,VALID,0,VALID,93.202,VALID,0.105969,VALID,24.5496,VALID,20,VALID,0,
2010-03-24, 01:20:05,VALID,1007.14,VALID,0,VALID,93.1791,VALID,0,VALID,24.5496,VALID,20,VALID,0,
2010-03-24, 01:21:05,VALID,1007.14,VALID,0,VALID,93.202,VALID,0,VALID,24.5283,VALID,20,VALID,0,
2010-03-24, 01:22:05,VALID,1007.14,VALID,0,VALID,93.2096,VALID,0,VALID,24.5301,VALID,20,VALID,0,
2010-03-24, 01:23:05,VALID,1007.12,VALID,0,VALID,93.2248,VALID,0.105969,VALID,24.5496,VALID,20,VALID,0,
2010-03-24, 01:24:05,VALID,1007.08,VALID,0,VALID,93.1943,VALID,0.105969,VALID,24.5496,VALID,20,VALID,0,
2010-03-24, 01:25:05,VALID,1007.08,VALID,0,VALID,93.2096,VALID,0.105969,VALID,24.5515,VALID,20,VALID,0,
2010-03-24, 01:26:05,VALID,1007.08,VALID,0,VALID,93.2096,VALID,0.105969,VALID,24.571,VALID,20,VALID,0,
2010-03-24, 01:27:05,VALID,1007.06,VALID,0,VALID,93.2172,VALID,0.105969,VALID,24.5496,VALID,20,VALID,0,
2010-03-24, 01:28:05,VALID,1007.05,VALID,0,VALID,93.2172,VALID,0.105969,VALID,24.5691,VALID,20,VALID,0,
2010-03-24, 01:29:05,VALID,1007.04,VALID,0,VALID,93.2248,VALID,0,VALID,24.5496,VALID,20,VALID,0,
2010-03-24, 01:30:05,VALID,1007.03,VALID,0,VALID,93.2172,VALID,0.105969,VALID,24.5691,VALID,20,VALID,0,
2010-03-24, 01:31:05,VALID,1007,VALID,0,VALID,93.2172,VALID,0.105969,VALID,24.5691,VALID,20,VALID,0,
2010-03-24, 01:32:05,VALID,1006.99,VALID,0,VALID,93.202,VALID,0.105969,VALID,24.6081,VALID,20,VALID,0,
2010-03-24, 01:33:05,VALID,1006.95,VALID,0,VALID,93.1791,VALID,0.105969,VALID,24.6081,VALID,20,VALID,0,
2010-03-24, 01:34:05,VALID,1006.93,VALID,0,VALID,93.1715,VALID,0.105969,VALID,24.6276,VALID,20,VALID,0,
2010-03-24, 01:35:05,VALID,1006.92,VALID,0,VALID,93.1715,VALID,0.105969,VALID,24.6276,VALID,20,VALID,0,
2010-03-24, 01:36:05,VALID,1006.89,VALID,0,VALID,93.1486,VALID,0.105969,VALID,24.6276,VALID,20,VALID,0,
2010-03-24, 01:37:05,VALID,1006.87,VALID,0,VALID,93.1715,VALID,0.105969,VALID,24.6471,VALID,20,VALID,0,
2010-03-24, 01:38:05,VALID,1006.87,VALID,0,VALID,93.1638,VALID,0.105969,VALID,24.6471,VALID,20,VALID,0,
2010-03-24, 01:39:05,VALID,1006.88,VALID,0,VALID,93.1562,VALID,0.105969,VALID,24.6471,VALID,20,VALID,0,
2010-03-24, 01:40:05,VALID,1006.86,VALID,0,VALID,93.1638,VALID,0,VALID,24.6471,VALID,20,VALID,0,
2010-03-24, 01:41:05,VALID,1006.84,VALID,0,VALID,93.1715,VALID,0.105969,VALID,24.6471,VALID,20,VALID,0,
2010-03-24, 01:42:05,VALID,1006.85,VALID,0,VALID,93.1867,VALID,0.105969,VALID,24.6471,VALID,20,VALID,0,
2010-03-24, 01:43:05,VALID,1006.87,VALID,0,VALID,93.1715,VALID,0.105969,VALID,24.6276,VALID,20,VALID,0,
2010-03-24, 01:44:05,VALID,1006.85,VALID,0,VALID,93.1791,VALID,0.105969,VALID,24.6276,VALID,20,VALID,0,
2010-03-24, 01:45:05,VALID,1006.85,VALID,0,VALID,93.202,VALID,0,VALID,24.6099,VALID,20,VALID,0,
2010-03-24, 01:46:05,VALID,1006.83,VALID,0,VALID,93.1715,VALID,0,VALID,24.6294,VALID,20,VALID,0,
2010-03-24, 01:47:05,VALID,1006.82,VALID,0,VALID,93.1791,VALID,0,VALID,24.6294,VALID,20,VALID,0,
2010-03-24, 01:48:05,VALID,1006.8,VALID,0,VALID,93.1715,VALID,0,VALID,24.6489,VALID,20,VALID,0,
2010-03-24, 01:49:05,VALID,1006.79,VALID,0,VALID,93.1791,VALID,0,VALID,24.6294,VALID,20,VALID,0,
2010-03-24, 01:50:05,VALID,1006.79,VALID,0,VALID,93.1867,VALID,0,VALID,24.6489,VALID,20,VALID,0,
2010-03-24, 01:51:05,VALID,1006.79,VALID,0,VALID,93.1791,VALID,0,VALID,24.6294,VALID,20,VALID,0,
2010-03-24, 01:52:05,VALID,1006.78,VALID,0,VALID,93.202,VALID,0,VALID,24.6294,VALID,20,VALID,0,
2010-03-24, 01:53:05,VALID,1006.81,VALID,0,VALID,93.1867,VALID,0,VALID,24.6294,VALID,20,VALID,0,
2010-03-24, 01:54:05,VALID,1006.77,VALID,0,VALID,93.1638,VALID,0,VALID,24.6489,VALID,20,VALID,0,
2010-03-24, 01:55:05,VALID,1006.79,VALID,0,VALID,93.1867,VALID,0,VALID,24.6294,VALID,20,VALID,0,
2010-03-24, 01:56:05,VALID,1006.78,VALID,0,VALID,93.1943,VALID,0,VALID,24.6099,VALID,20,VALID,0,
2010-03-24, 01:57:05,VALID,1006.79,VALID,0,VALID,93.202,VALID,0,VALID,24.6099,VALID,20,VALID,0,
2010-03-24, 01:58:05,VALID,1006.76,VALID,0,VALID,93.2248,VALID,0,VALID,24.5905,VALID,20,VALID,0,
2010-03-24, 01:59:05,VALID,1006.76,VALID,0,VALID,93.202,VALID,0,VALID,24.6099,VALID,20,VALID,0,
2010-03-24, 02:00:05,VALID,1006.74,VALID,0,VALID,93.2401,VALID,0.105969,VALID,24.5691,VALID,20,VALID,0,
2010-03-24, 02:01:05,VALID,1006.77,VALID,0,VALID,93.2325,VALID,0.105969,VALID,24.5905,VALID,20,VALID,0,
2010-03-24, 02:02:05,VALID,1006.76,VALID,0,VALID,93.2553,VALID,0,VALID,24.571,VALID,20,VALID,0,
2010-03-24, 02:03:05,VALID,1006.73,VALID,0,VALID,93.2477,VALID,0.105969,VALID,24.5515,VALID,20,VALID,0,
2010-03-24, 02:04:05,VALID,1006.73,VALID,0,VALID,93.2706,VALID,0,VALID,24.5106,VALID,20,VALID,0,
2010-03-24, 02:05:05,VALID,1006.73,VALID,0,VALID,93.3087,VALID,0.105969,VALID,24.532,VALID,20,VALID,0,
2010-03-24, 02:06:05,VALID,1006.71,VALID,0,VALID,93.2935,VALID,0,VALID,24.532,VALID,20,VALID,0,
2010-03-24, 02:07:05,VALID,1006.71,VALID,0,VALID,93.2858,VALID,0,VALID,24.532,VALID,20,VALID,0,
2010-03-24, 02:08:05,VALID,1006.69,VALID,0,VALID,93.2935,VALID,0,VALID,24.4911,VALID,20,VALID,0,
2010-03-24, 02:09:05,VALID,1006.68,VALID,0,VALID,93.2935,VALID,0,VALID,24.4717,VALID,20,VALID,0,
2010-03-24, 02:10:05,VALID,1006.65,VALID,0,VALID,93.3011,VALID,0,VALID,24.4735,VALID,20,VALID,0,
2010-03-24, 02:11:05,VALID,1006.64,VALID,0,VALID,93.3087,VALID,0,VALID,24.4522,VALID,20,VALID,0,
2010-03-24, 02:12:05,VALID,1006.64,VALID,0,VALID,93.3087,VALID,0.105969,VALID,24.4735,VALID,20,VALID,0,
2010-03-24, 02:13:05,VALID,1006.64,VALID,0,VALID,93.2706,VALID,0.105969,VALID,24.454,VALID,20,VALID,0,
2010-03-24, 02:14:05,VALID,1006.63,VALID,0,VALID,93.2782,VALID,0,VALID,24.4345,VALID,20,VALID,0,
2010-03-24, 02:15:05,VALID,1006.59,VALID,0,VALID,93.2401,VALID,0,VALID,24.415,VALID,20,VALID,0,
2010-03-24, 02:16:05,VALID,1006.57,VALID,0,VALID,93.1791,VALID,0,VALID,24.4345,VALID,20,VALID,0,
2010-03-24, 02:17:05,VALID,1006.58,VALID,0,VALID,93.1562,VALID,0,VALID,24.4345,VALID,20,VALID,0,
2010-03-24, 02:18:05,VALID,1006.57,VALID,0,VALID,93.141,VALID,0,VALID,24.415,VALID,20,VALID,0,
2010-03-24, 02:19:05,VALID,1006.57,VALID,0,VALID,93.1791,VALID,0,VALID,24.3956,VALID,20,VALID,0,
2010-03-24, 02:20:05,VALID,1006.56,VALID,0,VALID,93.1867,VALID,0.105969,VALID,24.3956,VALID,20,VALID,0,
2010-03-24, 02:21:05,VALID,1006.57,VALID,0,VALID,93.1486,VALID,0,VALID,24.3956,VALID,20,VALID,0,
2010-03-24, 02:22:05,VALID,1006.62,VALID,0,VALID,93.2782,VALID,0,VALID,24.3547,VALID,20,VALID,0,
2010-03-24, 02:23:05,VALID,1006.59,VALID,0,VALID,93.2172,VALID,0,VALID,24.3547,VALID,20,VALID,0,
2010-03-24, 02:24:05,VALID,1006.6,VALID,0,VALID,93.202,VALID,0,VALID,24.3566,VALID,20,VALID,0,
2010-03-24, 02:25:05,VALID,1006.62,VALID,0,VALID,93.202,VALID,0,VALID,24.3566,VALID,20,VALID,0,
2010-03-24, 02:26:05,VALID,1006.62,VALID,0,VALID,93.2553,VALID,0,VALID,24.3547,VALID,20,VALID,0,
2010-03-24, 02:27:05,VALID,1006.65,VALID,0,VALID,93.4917,VALID,0,VALID,24.3761,VALID,20,VALID,0,
2010-03-24, 02:28:05,VALID,1006.63,VALID,0,VALID,93.5604,VALID,0,VALID,24.3956,VALID,20,VALID,0,
2010-03-24, 02:29:05,VALID,1006.64,VALID,0,VALID,93.5527,VALID,0,VALID,24.3742,VALID,20,VALID,0,
2010-03-24, 02:30:05,VALID,1006.64,VALID,0,VALID,93.5832,VALID,0,VALID,24.3956,VALID,20,VALID,0,
2010-03-24, 02:31:05,VALID,1006.64,VALID,0,VALID,93.6061,VALID,0,VALID,24.3937,VALID,20,VALID,0,
2010-03-24, 02:32:05,VALID,1006.62,VALID,0,VALID,93.6214,VALID,0.105969,VALID,24.3956,VALID,20,VALID,0,
2010-03-24, 02:33:05,VALID,1006.61,VALID,0,VALID,93.6366,VALID,0,VALID,24.3956,VALID,20,VALID,0,
2010-03-24, 02:34:05,VALID,1006.55,VALID,0,VALID,93.6442,VALID,0.105969,VALID,24.415,VALID,20,VALID,0,
2010-03-24, 02:35:05,VALID,1006.54,VALID,0,VALID,93.629,VALID,0,VALID,24.3742,VALID,20,VALID,0,
2010-03-24, 02:36:05,VALID,1006.51,VALID,0,VALID,93.6366,VALID,0,VALID,24.3742,VALID,20,VALID,0,
2010-03-24, 02:37:05,VALID,1006.5,VALID,0,VALID,93.6366,VALID,0,VALID,24.415,VALID,20,VALID,0,
2010-03-24, 02:38:05,VALID,1006.52,VALID,0,VALID,93.6366,VALID,0,VALID,24.415,VALID,20,VALID,0,
2010-03-24, 02:39:05,VALID,1006.5,VALID,0,VALID,93.6366,VALID,0,VALID,24.3956,VALID,20,VALID,0,
2010-03-24, 02:40:05,VALID,1006.49,VALID,0,VALID,93.6748,VALID,0,VALID,24.3742,VALID,20,VALID,0,
2010-03-24, 02:41:05,VALID,1006.47,VALID,0,VALID,93.6824,VALID,0,VALID,24.3956,VALID,20,VALID,0,
2010-03-24, 02:42:05,VALID,1006.46,VALID,0,VALID,93.6824,VALID,0.105969,VALID,24.3956,VALID,20,VALID,0,
2010-03-24, 02:43:05,VALID,1006.44,VALID,0,VALID,93.6748,VALID,0,VALID,24.3742,VALID,20,VALID,0,
2010-03-24, 02:44:05,VALID,1006.42,VALID,0,VALID,93.6824,VALID,0,VALID,24.3956,VALID,20,VALID,0,
2010-03-24, 02:45:05,VALID,1006.4,VALID,0,VALID,93.6748,VALID,0,VALID,24.3761,VALID,20,VALID,0,
2010-03-24, 02:46:05,VALID,1006.36,VALID,0,VALID,93.6748,VALID,0,VALID,24.3547,VALID,20,VALID,0,
2010-03-24, 02:47:05,VALID,1006.33,VALID,0,VALID,93.6748,VALID,0,VALID,24.3761,VALID,20,VALID,0,
2010-03-24, 02:48:05,VALID,1006.34,VALID,0,VALID,93.6976,VALID,0,VALID,24.3761,VALID,20,VALID,0,
2010-03-24, 02:49:05,VALID,1006.35,VALID,0,VALID,93.6976,VALID,0,VALID,24.3566,VALID,20,VALID,0,
2010-03-24, 02:50:05,VALID,1006.34,VALID,0,VALID,93.6976,VALID,0.105969,VALID,24.3566,VALID,20,VALID,0,
2010-03-24, 02:51:05,VALID,1006.32,VALID,0,VALID,93.6976,VALID,0,VALID,24.3352,VALID,20,VALID,0,
2010-03-24, 02:52:05,VALID,1006.31,VALID,0,VALID,93.7053,VALID,0,VALID,24.3566,VALID,20,VALID,0,
2010-03-24, 02:53:05,VALID,1006.28,VALID,0,VALID,93.7053,VALID,0,VALID,24.3566,VALID,20,VALID,0,
2010-03-24, 02:54:05,VALID,1006.27,VALID,0,VALID,93.6976,VALID,0,VALID,24.3352,VALID,20,VALID,0,
2010-03-24, 02:55:05,VALID,1006.23,VALID,0,VALID,93.7358,VALID,0,VALID,24.3352,VALID,20,VALID,0,
2010-03-24, 02:56:05,VALID,1006.25,VALID,0,VALID,93.7129,VALID,0,VALID,24.3371,VALID,20,VALID,0,
2010-03-24, 02:57:05,VALID,1006.22,VALID,0,VALID,93.7205,VALID,0,VALID,24.3371,VALID,20,VALID,0,
2010-03-24, 02:58:05,VALID,1006.2,VALID,0,VALID,93.7129,VALID,0,VALID,24.3371,VALID,20,VALID,0,
2010-03-24, 02:59:05,VALID,1006.2,VALID,0,VALID,93.7129,VALID,0,VALID,24.3371,VALID,20,VALID,0,
2010-03-24, 03:00:05,VALID,1006.2,VALID,0,VALID,93.7129,VALID,0,VALID,24.3352,VALID,20,VALID,0,
2010-03-24, 03:01:05,VALID,1006.18,VALID,0,VALID,93.7281,VALID,0.105969,VALID,24.3352,VALID,20,VALID,0,
2010-03-24, 03:02:05,VALID,1006.21,VALID,0,VALID,93.7053,VALID,0.105969,VALID,24.3352,VALID,20,VALID,0,
2010-03-24, 03:03:05,VALID,1006.19,VALID,0,VALID,93.6976,VALID,0.105969,VALID,24.3352,VALID,20,VALID,0,
2010-03-24, 03:04:05,VALID,1006.21,VALID,0,VALID,93.6976,VALID,0.105969,VALID,24.3761,VALID,20,VALID,0,
2010-03-24, 03:05:05,VALID,1006.19,VALID,0,VALID,93.69,VALID,0.105969,VALID,24.3566,VALID,20,VALID,0,
2010-03-24, 03:06:05,VALID,1006.15,VALID,0,VALID,93.69,VALID,0.105969,VALID,24.3352,VALID,20,VALID,0,
2010-03-24, 03:07:05,VALID,1006.17,VALID,0,VALID,93.7129,VALID,0,VALID,24.3352,VALID,20,VALID,0,
2010-03-24, 03:08:05,VALID,1006.14,VALID,0,VALID,93.6976,VALID,0,VALID,24.3352,VALID,20,VALID,0,
2010-03-24, 03:09:05,VALID,1006.13,VALID,0,VALID,93.7129,VALID,0.105969,VALID,24.3352,VALID,20,VALID,0,
2010-03-24, 03:10:05,VALID,1006.08,VALID,0,VALID,93.7053,VALID,0.105969,VALID,24.3158,VALID,20,VALID,0,
2010-03-24, 03:11:05,VALID,1006.06,VALID,0,VALID,93.7129,VALID,0.105969,VALID,24.3352,VALID,20,VALID,0,
2010-03-24, 03:12:05,VALID,1006.06,VALID,0,VALID,93.6976,VALID,0.105969,VALID,24.3566,VALID,20,VALID,0,
2010-03-24, 03:13:05,VALID,1006.03,VALID,0,VALID,93.6748,VALID,0,VALID,24.3158,VALID,20,VALID,0,
2010-03-24, 03:14:05,VALID,1006.01,VALID,0,VALID,93.6671,VALID,0,VALID,24.3352,VALID,20,VALID,0,
2010-03-24, 03:15:05,VALID,1005.99,VALID,0,VALID,93.6595,VALID,0,VALID,24.3352,VALID,20,VALID,0,
2010-03-24, 03:16:05,VALID,1006.01,VALID,0,VALID,93.6442,VALID,0,VALID,24.3352,VALID,20,VALID,0,
2010-03-24, 03:17:05,VALID,1005.98,VALID,0,VALID,93.629,VALID,0.105969,VALID,24.3352,VALID,20,VALID,0,
2010-03-24, 03:18:05,VALID,1006,VALID,0,VALID,93.629,VALID,0.105969,VALID,24.3352,VALID,20,VALID,0,
2010-03-24, 03:19:05,VALID,1006,VALID,0,VALID,93.6137,VALID,0.105969,VALID,24.3352,VALID,20,VALID,0,
2010-03-24, 03:20:05,VALID,1006,VALID,0,VALID,93.6061,VALID,0.105969,VALID,24.3371,VALID,20,VALID,0,
2010-03-24, 03:21:05,VALID,1006.01,VALID,0,VALID,93.6061,VALID,0.105969,VALID,24.3352,VALID,20,VALID,0,
2010-03-24, 03:22:05,VALID,1006.01,VALID,0,VALID,93.6061,VALID,0,VALID,24.3158,VALID,20,VALID,0,
2010-03-24, 03:23:05,VALID,1005.96,VALID,0,VALID,93.751,VALID,0.105969,VALID,24.3158,VALID,20,VALID,0,
2010-03-24, 03:24:05,VALID,1005.98,VALID,0,VALID,93.7358,VALID,0.105969,VALID,24.2963,VALID,20,VALID,0,
2010-03-24, 03:25:05,VALID,1005.98,VALID,0,VALID,93.7281,VALID,0.105969,VALID,24.3158,VALID,20,VALID,0,
2010-03-24, 03:26:05,VALID,1005.98,VALID,0,VALID,93.7358,VALID,0.105969,VALID,24.3566,VALID,20,VALID,0,
2010-03-24, 03:27:05,VALID,1005.98,VALID,0,VALID,93.7358,VALID,0,VALID,24.3371,VALID,20,VALID,0,
2010-03-24, 03:28:05,VALID,1005.99,VALID,0,VALID,93.7281,VALID,0.105969,VALID,24.3352,VALID,20,VALID,0,
2010-03-24, 03:29:05,VALID,1006,VALID,0,VALID,93.7053,VALID,0.105969,VALID,24.3352,VALID,20,VALID,0,
2010-03-24, 03:30:05,VALID,1006.01,VALID,0,VALID,93.7053,VALID,0.105969,VALID,24.3352,VALID,20,VALID,0,
2010-03-24, 03:31:05,VALID,1006.06,VALID,0,VALID,93.7281,VALID,0.105969,VALID,24.3158,VALID,20,VALID,0,
2010-03-24, 03:32:05,VALID,1006.07,VALID,0,VALID,93.7281,VALID,0,VALID,24.3352,VALID,93,VALID,0.3,
2010-03-24, 03:33:05,VALID,1006.1,VALID,0,VALID,93.7281,VALID,0.105969,VALID,24.3566,VALID,93,VALID,0.45,
2010-03-24, 03:34:05,VALID,1006.12,VALID,0,VALID,93.7358,VALID,0.105969,VALID,24.3761,VALID,93,VALID,0.485156,
2010-03-24, 03:35:05,VALID,1006.1,VALID,0,VALID,93.7358,VALID,0.105969,VALID,24.3547,VALID,83,VALID,0.698828,
2010-03-24, 03:36:05,VALID,1006.11,VALID,0,VALID,93.7663,VALID,0,VALID,24.3547,VALID,83,VALID,0.426562,
2010-03-24, 03:37:05,VALID,1006.11,VALID,0,VALID,93.751,VALID,0,VALID,24.3761,VALID,83,VALID,0.090625,
2010-03-24, 03:38:05,VALID,1006.11,VALID,0,VALID,93.7663,VALID,0,VALID,24.3547,VALID,83,VALID,0,
2010-03-24, 03:39:05,VALID,1006.12,VALID,0,VALID,93.7586,VALID,0,VALID,24.3956,VALID,83,VALID,0,
2010-03-24, 03:40:05,VALID,1006.1,VALID,0,VALID,93.7586,VALID,0.105969,VALID,24.3742,VALID,83,VALID,0,
2010-03-24, 03:41:05,VALID,1006.09,VALID,0,VALID,93.7968,VALID,0.105969,VALID,24.3742,VALID,83,VALID,0,
2010-03-24, 03:42:05,VALID,1006.12,VALID,0,VALID,93.8044,VALID,0.105969,VALID,24.3547,VALID,83,VALID,0.177734,
2010-03-24, 03:43:05,VALID,1006.13,VALID,0,VALID,93.8196,VALID,0.105969,VALID,24.3547,VALID,72,VALID,0,
2010-03-24, 03:44:05,VALID,1006.14,VALID,0,VALID,93.8196,VALID,0.105969,VALID,24.3547,VALID,72,VALID,0.00429688,
2010-03-24, 03:45:05,VALID,1006.15,VALID,0,VALID,93.8425,VALID,0.105969,VALID,24.3352,VALID,72,VALID,0,
2010-03-24, 03:46:05,VALID,1006.14,VALID,0,VALID,93.8502,VALID,0.105969,VALID,24.3547,VALID,72,VALID,0,
2010-03-24, 03:47:05,VALID,1006.14,VALID,0,VALID,93.8273,VALID,0,VALID,24.3566,VALID,72,VALID,0,
2010-03-24, 03:48:05,VALID,1006.14,VALID,0,VALID,93.8349,VALID,0,VALID,24.3566,VALID,72,VALID,0,
2010-03-24, 03:49:05,VALID,1006.17,VALID,0,VALID,93.8349,VALID,0,VALID,24.3566,VALID,72,VALID,0,
2010-03-24, 03:50:04,VALID,1006.21,VALID,0,VALID,93.8425,VALID,0,VALID,24.3371,VALID,72,VALID,0,
2010-03-24, 03:51:04,VALID,1006.22,VALID,0,VALID,93.8578,VALID,0.105969,VALID,24.3158,VALID,72,VALID,0,
2010-03-24, 03:52:04,VALID,1006.28,VALID,0,VALID,93.8654,VALID,0,VALID,24.3158,VALID,72,VALID,0.328516,
2010-03-24, 03:53:04,VALID,1006.27,VALID,0,VALID,93.873,VALID,0.105969,VALID,24.3371,VALID,72,VALID,0,
2010-03-24, 03:54:04,VALID,1006.29,VALID,0,VALID,93.8807,VALID,0,VALID,24.3176,VALID,67,VALID,0.299219,